sat.trackr.live / text

‹ back to catalog

IRNSS-1I

NORAD 43286 · 2018-035A

PAYLOAD ACTIVE UNKNOWN

§ Identity

Operator
Country
IND
Launch date
2018-04-11
Launch site
SRILR
Launch vehicle
Mass (kg)
RCS (m²)

Purposes: comms, nav

External: N2YO · Heavens-Above · Gunter

§ Orbital elements

Epoch: 2026-09-16T01:59:04.576704Z

Period
1,436.09 min
Inclination
28.9650°
Eccentricity
0.0020697
Mean motion
1.00272519 rev/d
Perigee alt
35,699.1 km
Apogee alt
35,873.7 km
Semi-major
42,164.5 km
B*
0.0000e+0
RAAN
72.7792°
Arg perigee
177.9946°
Mean anomaly
189.1474°
Rev number
3,099

§ Raw data

IRNSS-1I1 43286U 18035A   26259.08269186  .00000081  00000+0  00000+0 0  99912 43286  28.9650  72.7792 0020697 177.9946 189.1474  1.00272519 30998

JSON: /api/v1/satellites/43286 · /tle

For live sub-satellite position, see the globe view (requires WebGL).

§ Visibility from observer

Set your observer location to see the next 7 days of passes ≥ 10°. The values pass through the URL so the page stays shareable.

No JS? Fill the form by hand. The geolocation button needs JavaScript.